Total_Precipitation_Accumulation
0.32 0.50 1.19 1.53 1.70 1.58 1.39 1.29 1.26 1.21 1.22 1.23 1.23 1.20 1.14 1.14 1.16 1.14 1.23 1.55 1.76 1.85 1.99 1.91 1.74 1.64 1.51 1.44 1.31 1.18 1.12 1.05 0.94 0.84 0.77 0.90 1.03 1.04 0.88 0.87 0.97 1.03 1.43
0.31 0.50 1.11 1.46 1.64 1.46 1.34 1.26 1.21 1.15 1.18 1.27 1.38 1.36 1.26 1.22 1.21 1.22 1.29 1.64 1.82 1.93 2.12 2.07 1.84 1.65 1.34 1.14 1.00 0.93 0.88 0.74 0.61 0.43 0.37 0.46 0.70 0.93 0.90 0.81 0.89 1.12 1.33
0.30 0.44 0.95 1.45 1.59 1.53 1.43 1.32 1.26 1.17 1.22 1.33 1.47 1.45 1.35 1.23 1.22 1.29 1.35 1.65 1.83 1.89 1.95 1.92 1.77 1.53 1.20 0.97 0.84 0.80 0.73 0.59 0.44 0.30 0.30 0.40 0.60 0.93 0.96 0.95 1.07 1.18 1.25
0.33 0.44 0.82 1.44 1.59 1.56 1.45 1.38 1.34 1.28 1.25 1.35 1.48 1.44 1.38 1.35 1.35 1.28 1.37 1.63 1.82 1.73 1.62 1.62 1.51 1.32 1.03 0.83 0.77 0.75 0.69 0.58 0.40 0.32 0.42 0.52 0.63 1.13 1.18 1.18 1.25 1.21 1.21
0.43 0.54 0.92 1.47 1.64 1.60 1.55 1.44 1.44 1.47 1.40 1.38 1.39 1.44 1.41 1.37 1.39 1.36 1.34 1.45 1.64 1.66 1.53 1.44 1.30 1.11 0.94 0.81 0.74 0.74 0.66 0.50 0.36 0.34 0.45 0.60 0.90 1.52 1.41 1.27 1.30 1.21 1.13
0.55 0.78 1.15 1.58 1.75 1.75 1.68 1.54 1.54 1.63 1.64 1.55 1.49 1.48 1.51 1.50 1.50 1.43 1.28 1.21 1.37 1.53 1.51 1.40 1.19 1.08 0.95 0.84 0.77 0.73 0.63 0.47 0.36 0.40 0.47 0.59 0.91 1.56 1.48 1.32 1.28 1.32 1.30
0.67 0.97 1.38 1.78 1.91 1.87 1.81 1.68 1.69 1.77 1.79 1.73 1.66 1.66 1.62 1.62 1.59 1.45 1.26 1.14 1.26 1.41 1.46 1.39 1.20 1.08 1.01 0.91 0.86 0.75 0.55 0.44 0.38 0.42 0.54 0.67 1.07 1.57 1.51 1.41 1.44 1.45 1.46
0.98 1.30 1.69 2.05 2.09 1.96 1.83 1.74 1.68 1.81 1.83 1.74 1.68 1.76 1.74 1.65 1.56 1.44 1.26 1.17 1.25 1.43 1.57 1.46 1.30 1.11 0.99 0.94 0.84 0.70 0.51 0.41 0.39 0.38 0.48 0.67 1.16 1.59 1.63 1.49 1.48 1.51 1.50
1.59 1.81 1.96 2.10 2.10 2.17 2.00 1.82 1.74 1.80 1.84 1.81 1.77 1.75 1.72 1.68 1.65 1.52 1.40 1.34 1.31 1.42 1.50 1.50 1.38 1.23 1.05 0.93 0.77 0.59 0.46 0.42 0.40 0.38 0.37 0.61 1.09 1.55 1.74 1.65 1.63 1.67 1.62
2.15 2.31 2.37 2.36 2.27 2.19 2.12 1.95 1.81 1.83 1.79 1.81 1.80 1.72 1.61 1.61 1.61 1.49 1.33 1.32 1.32 1.33 1.29 1.31 1.35 1.31 1.14 0.98 0.72 0.51 0.45 0.46 0.37 0.37 0.43 0.64 1.15 1.62 1.79 1.70 1.72 1.67 1.65
2.61 2.71 2.82 2.81 2.65 2.47 2.21 1.94 1.92 1.92 1.89 1.83 1.79 1.63 1.65 1.63 1.55 1.38 1.26 1.16 1.13 1.17 1.16 1.20 1.24 1.18 1.06 0.94 0.75 0.55 0.49 0.49 0.43 0.40 0.46 0.78 1.33 1.71 1.80 1.68 1.70 1.60 1.51
2.76 2.90 2.95 3.04 3.03 2.90 2.57 2.28 2.20 2.03 1.97 1.81 1.69 1.69 1.61 1.57 1.55 1.35 1.34 1.19 1.07 1.01 1.05 1.15 1.18 1.10 0.96 0.87 0.78 0.65 0.56 0.56 0.57 0.49 0.53 0.88 1.38 1.77 1.89 1.77 1.69 1.58 1.45
2.88 3.08 3.17 3.26 3.21 3.08 2.80 2.48 2.30 2.22 2.15 2.05 1.90 1.84 1.71 1.66 1.62 1.55 1.52 1.44 1.24 1.06 1.05 1.02 1.02 0.92 0.87 0.83 0.82 0.69 0.57 0.57 0.65 0.57 0.59 0.88 1.33 1.80 2.00 1.91 1.76 1.63 1.50
3.01 3.11 3.30 3.46 3.37 3.17 2.94 2.72 2.47 2.41 2.39 2.30 2.17 2.09 1.97 1.82 1.70 1.56 1.42 1.39 1.38 1.18 1.13 1.07 0.92 0.82 0.84 0.80 0.78 0.74 0.66 0.64 0.66 0.66 0.65 0.82 1.23 1.69 1.88 1.86 1.80 1.72 1.66
2.96 3.20 3.43 3.57 3.51 3.41 3.28 2.95 2.65 2.57 2.55 2.50 2.49 2.30 2.10 1.96 1.86 1.80 1.60 1.47 1.38 1.32 1.30 1.24 1.09 1.00 0.94 0.92 0.87 0.81 0.75 0.71 0.69 0.68 0.67 0.70 0.94 1.38 1.70 1.87 1.97 1.92 1.88
2.65 3.06 3.42 3.57 3.52 3.44 3.43 3.27 2.92 2.62 2.65 2.65 2.56 2.46 2.34 2.19 2.05 1.98 1.87 1.76 1.59 1.47 1.43 1.38 1.23 1.24 1.22 1.16 1.06 0.95 0.84 0.78 0.74 0.69 0.66 0.68 0.81 1.06 1.45 1.80 1.96 2.04 2.15
2.37 2.75 3.19 3.55 3.68 3.50 3.48 3.54 3.43 3.10 2.82 2.63 2.51 2.48 2.46 2.35 2.21 2.13 2.11 1.94 1.72 1.65 1.66 1.63 1.53 1.47 1.40 1.32 1.22 1.15 1.04 0.96 0.87 0.79 0.75 0.71 0.76 0.93 1.22 1.53 1.76 1.96 2.24
2.21 2.53 2.90 3.16 3.56 3.59 3.50 3.53 3.58 3.46 3.23 2.95 2.70 2.54 2.47 2.38 2.30 2.25 2.20 2.15 1.95 1.89 1.92 1.85 1.74 1.67 1.53 1.41 1.31 1.27 1.20 1.15 1.08 1.03 0.96 0.86 0.81 0.80 1.00 1.33 1.54 1.81 2.15
2.07 2.39 2.87 2.90 3.16 3.56 3.80 3.69 3.52 3.50 3.39 3.23 2.99 2.68 2.47 2.49 2.49 2.38 2.19 2.15 2.14 2.03 1.97 1.98 1.89 1.77 1.66 1.58 1.51 1.42 1.36 1.33 1.24 1.17 1.16 1.08 1.00 0.91 0.90 1.09 1.32 1.48 1.79
2.13 2.35 2.77 2.91 3.08 3.46 3.85 3.94 3.81 3.66 3.49 3.39 3.12 2.80 2.60 2.50 2.53 2.45 2.29 2.27 2.29 2.19 2.01 1.93 1.86 1.81 1.72 1.72 1.70 1.60 1.51 1.47 1.46 1.34 1.25 1.23 1.18 1.09 1.01 0.98 1.04 1.18 1.42
2.30 2.37 2.59 2.85 3.02 3.29 3.53 3.58 3.48 3.45 3.47 3.47 3.30 3.11 2.95 2.79 2.67 2.63 2.50 2.46 2.45 2.34 2.20 2.14 2.12 2.02 1.88 1.84 1.84 1.69 1.60 1.56 1.49 1.41 1.33 1.21 1.17 1.16 1.14 1.10 1.03 1.00 1.11
2.22 2.31 2.51 2.75 2.87 2.98 3.22 3.47 3.46 3.51 3.57 3.67 3.64 3.48 3.24 3.10 2.99 2.88 2.83 2.80 2.72 2.57 2.43 2.34 2.31 2.25 2.08 2.03 2.05 2.01 1.85 1.80 1.61 1.37 1.30 1.21 1.16 1.16 1.16 1.21 1.20 1.07 0.98
2.08 2.31 2.43 2.62 2.79 2.88 3.22 3.77 3.85 3.88 3.83 3.84 3.82 3.75 3.56 3.31 3.18 3.04 2.99 3.04 3.01 2.87 2.71 2.53 2.42 2.34 2.32 2.24 2.14 2.27 2.03 1.73 1.57 1.45 1.32 1.24 1.21 1.23 1.22 1.24 1.28 1.21 1.07
1.82 2.12 2.41 2.59 2.82 3.06 3.39 3.74 3.84 3.72 3.67 3.57 3.50 3.57 3.66 3.46 3.32 3.22 3.17 3.14 3.16 3.13 2.96 2.81 2.67 2.56 2.52 2.44 2.30 2.08 1.94 1.69 1.60 1.50 1.37 1.34 1.29 1.25 1.24 1.24 1.29 1.31 1.28
1.65 1.86 2.12 2.44 2.65 3.00 3.32 3.57 3.82 3.64 3.40 3.50 3.53 3.43 3.49 3.49 3.33 3.27 3.20 3.10 3.05 3.07 3.11 3.06 2.86 2.75 2.60 2.40 2.25 2.07 1.94 1.71 1.51 1.51 1.36 1.27 1.31 1.25 1.20 1.20 1.26 1.32 1.33
1.49 1.66 1.80 2.06 2.24 2.47 2.81 3.18 3.49 3.56 3.44 3.42 3.42 3.44 3.36 3.31 3.26 3.22 3.18 3.07 2.91 2.84 2.87 2.99 2.99 2.85 2.72 2.51 2.29 2.14 2.01 1.90 1.69 1.63 1.55 1.30 1.28 1.26 1.24 1.22 1.19 1.22 1.26